Location: ?????????
(54.7630°N, 39.4991°E)
Time: 06:11:16
(UTC+00:00)

Cosmos 2285 Rocket - Pass Details

Date: 14 April 2026
Orbit: 971 x 997 km, 74.0° (Epoch: 10 May)

Event Time Altitude Azimuth Distance (km) Brightness Sun altitude
Exits shadow 20:10:28 33° 214° (SW) 1,593 4.8 -23.9°
Maximum altitude 20:13:33 81° 298° (WNW) 1,001 4.0 -24.0°
Drops below altitude 10° 20:19:56 10° 27° (NNE) 2,741 6.9 -24.3°
Sets 20:22:28 0° 28° (NNE) 3,689 7.7 -24.4°
